Precipitable_Water
0.56 0.49 0.49 0.49 0.48 0.48 0.50 0.53 0.59 0.60 0.59 0.58 0.56 0.55 0.53 0.52 0.52 0.52 0.52 0.53 0.54 0.55
0.51 0.49 0.47 0.48 0.48 0.48 0.50 0.53 0.57 0.59 0.60 0.60 0.60 0.58 0.56 0.53 0.53 0.53 0.54 0.54 0.55 0.56
0.48 0.46 0.44 0.43 0.44 0.46 0.49 0.52 0.55 0.58 0.59 0.61 0.62 0.61 0.58 0.56 0.56 0.55 0.55 0.54 0.54 0.56
0.43 0.42 0.42 0.42 0.44 0.45 0.48 0.51 0.54 0.57 0.59 0.61 0.61 0.62 0.60 0.59 0.58 0.56 0.56 0.57 0.57 0.57
0.41 0.42 0.42 0.44 0.47 0.50 0.51 0.54 0.57 0.59 0.61 0.63 0.64 0.65 0.64 0.61 0.61 0.59 0.58 0.57 0.55 0.54
0.41 0.43 0.44 0.46 0.48 0.50 0.52 0.55 0.58 0.61 0.62 0.64 0.65 0.65 0.64 0.62 0.60 0.58 0.57 0.55 0.53 0.51
0.45 0.47 0.48 0.49 0.49 0.50 0.52 0.55 0.58 0.60 0.61 0.60 0.60 0.59 0.58 0.57 0.55 0.53 0.52 0.52 0.51 0.50
0.54 0.55 0.54 0.53 0.54 0.56 0.57 0.56 0.55 0.53 0.52 0.52 0.51 0.49 0.48 0.49 0.50 0.49 0.49 0.49 0.48 0.47
0.58 0.56 0.56 0.58 0.58 0.57 0.55 0.53 0.51 0.48 0.46 0.44 0.44 0.44 0.45 0.45 0.44 0.44 0.44 0.42 0.44 0.44
0.58 0.58 0.58 0.57 0.54 0.50 0.48 0.46 0.44 0.43 0.42 0.40 0.41 0.43 0.43 0.43 0.41 0.39 0.39 0.39 0.40 0.39
0.57 0.55 0.53 0.50 0.46 0.44 0.43 0.42 0.41 0.40 0.40 0.38 0.39 0.39 0.39 0.39 0.38 0.36 0.36 0.38 0.39 0.39
0.53 0.49 0.46 0.43 0.41 0.40 0.39 0.39 0.38 0.38 0.36 0.34 0.34 0.35 0.35 0.36 0.35 0.34 0.35 0.38 0.40 0.41
0.47 0.43 0.39 0.38 0.37 0.37 0.37 0.36 0.35 0.33 0.33 0.32 0.31 0.33 0.34 0.36 0.34 0.32 0.33 0.37 0.40 0.41
0.42 0.39 0.37 0.35 0.34 0.33 0.33 0.32 0.31 0.29 0.30 0.31 0.32 0.32 0.33 0.34 0.33 0.32 0.33 0.35 0.38 0.41
Wind_Speed
29 29 30 31 32 32 32 32 32 31 29 29 29 29 29 29 30 30 30 31 31 32
30 31 32 33 33 33 33 33 32 31 30 30 30 30 31 31 32 32 33 33 34 34
32 33 34 34 34 34 34 34 33 32 31 31 32 32 33 33 34 34 34 35 35 36
33 34 34 34 34 34 34 33 32 32 32 32 33 34 34 35 35 36 36 37 37 37
34 34 34 33 33 33 32 32 32 32 33 33 34 35 36 36 37 38 38 37 37 36
33 33 33 33 32 32 32 32 32 33 34 34 35 36 37 37 37 37 37 37 38 38
32 32 32 32 32 33 33 33 34 34 34 35 35 36 36 37 37 38 39 39 39 39
32 32 33 33 34 34 34 35 35 35 35 35 35 36 37 37 38 39 40 40 40 40
33 34 34 35 35 35 35 35 35 35 36 36 36 36 37 38 39 40 40 40 40 40
35 35 36 36 36 36 36 36 36 36 36 36 36 36 38 39 39 39 39 40 40 39
36 36 36 36 37 36 36 37 37 37 37 37 37 37 37 38 39 39 39 39 39 38
37 37 37 37 37 37 37 37 37 37 37 36 36 36 37 37 38 38 38 37 36 35
36 36 36 36 36 36 36 36 36 37 36 36 36 37 37 38 37 37 36 35 34 33
35 35 35 36 36 36 37 37 37 38 37 37 37 37 37 37 36 35 34 33 32 31
Wind_Direction
289 291 293 295 296 296 296 296 296 294 292 289 289 290 291 292 293 293 293 293 293 293
289 291 292 294 295 295 295 295 294 291 290 288 288 289 290 291 292 292 293 292 292 292
289 291 292 294 294 294 294 293 292 289 288 288 288 289 290 291 291 292 292 293 292 292
289 291 292 293 294 294 294 293 291 290 289 288 289 289 290 291 291 292 292 292 291 291
289 291 292 293 294 295 294 294 292 291 290 290 290 290 290 290 291 291 291 291 291 291
289 291 292 293 294 295 295 294 293 292 292 291 291 291 291 291 291 290 290 290 290 290
289 290 291 292 294 294 295 294 294 294 293 293 293 292 292 292 291 291 291 290 290 289
289 290 291 292 293 294 294 294 294 294 294 293 293 293 293 293 293 292 292 291 290 289
288 290 290 292 293 293 294 294 294 294 294 294 294 294 294 294 294 293 292 291 290 289
288 289 290 291 292 293 293 294 294 294 294 294 295 295 296 296 295 294 293 291 290 289
288 289 290 291 292 292 293 293 294 294 294 294 295 295 297 297 296 295 294 292 291 290
288 289 290 290 291 292 293 293 293 294 294 294 294 296 297 298 298 297 295 294 292 290
288 289 290 290 291 292 292 293 293 293 293 293 294 295 297 298 298 297 297 295 293 291
289 289 290 291 291 292 292 292 293 292 292 293 293 294 296 298 298 297 297 295 294 293